This is the latest recevied weather packets stored in our database for station/object W8KHW. If no packets are shown the sender has not sent any weather packets the latest 10 day(s).
| Time | Temp. | Humidity | Pressure | Rain* | Wind** | Luminosity | Snow |
|---|---|---|---|---|---|---|---|
| 1777919467 | 22.22° C | 53% | 1007.8 hPa | 0 mm | - | - | - |
| 1777918967 | 22.22° C | 57% | 1007.9 hPa | 0 mm | - | - | - |
| 1777918467 | 21.67° C | 57% | 1008 hPa | 0 mm | - | - | - |
| 1777917967 | 22.22° C | 56% | 1007.9 hPa | 0 mm | - | - | - |
| 1777917467 | 22.22° C | 53% | 1008 hPa | 0 mm | - | - | - |
| 1777916966 | 22.22° C | 57% | 1008.3 hPa | 0 mm | - | - | - |
| 1777916466 | 21.67° C | 56% | 1008.3 hPa | 0 mm | - | - | - |
| 1777915966 | 22.22° C | 55% | 1008.5 hPa | 0 mm | - | - | - |
| 1777915466 | 21.67° C | 56% | 1008.4 hPa | 0 mm | - | - | - |
| 1777914966 | 21.67° C | 59% | 1008.2 hPa | 0 mm | - | - | - |
| 1777914465 | 22.22° C | 60% | 1008.3 hPa | 0 mm | - | - | - |
| 1777913965 | 21.67° C | 59% | 1008.4 hPa | 0 mm | - | - | - |
| 1777913465 | 21.67° C | 57% | 1008.5 hPa | 0 mm | - | - | - |
| 1777912964 | 21.11° C | 59% | 1009 hPa | 0 mm | - | - | - |
| 1777912464 | 20.56° C | 60% | 1008.9 hPa | 0 mm | - | - | - |
| 1777911964 | 20.56° C | 60% | 1008.7 hPa | 0 mm | - | - | - |
| 1777911464 | 21.11° C | 58% | 1008.9 hPa | 0 mm | - | - | - |
| 1777910964 | 20° C | 60% | 1009 hPa | 0 mm | - | - | - |
| 1777910463 | 20° C | 60% | 1009.1 hPa | 0 mm | - | - | - |
| 1777909963 | 20° C | 58% | 1009.4 hPa | 0 mm | - | - | - |
| 1777909463 | 19.44° C | 60% | 1009.4 hPa | 0 mm | - | - | - |
| 1777908963 | 18.89° C | 62% | 1009.4 hPa | 0 mm | - | - | - |
| 1777908463 | 18.89° C | 64% | 1009.6 hPa | 0 mm | - | - | - |
| 1777907962 | 18.33° C | 61% | 1009.6 hPa | 0 mm | - | - | - |
| 1777907462 | 18.33° C | 61% | 1009.8 hPa | 0 mm | - | - | - |
* Rain latest hour (hover to see other rain measurements)
** Current wind speed in m/s (hover to see current wind gust speed)